    Orbital elements:
    2015 CX12                                           PHA, Earth MOID = 0.0318 AU
    Epoch 2014 Dec. 9.0 TT = JDT 2457000.5                  MPC
    M 357.29187              (2000.0)            P               Q
    n   0.34793663     Peri.  226.67036     +0.45065841     -0.89224148
    a   2.0020240      Node   196.61017     +0.84517232     +0.43672661
    e   0.6107706      Incl.    5.72151     +0.28738605     +0.11478247
    P   2.83           H   20.0           G   0.15           U   7
    Residuals in seconds of arc
    150211 703  0.6+  0.2+    150211 246  0.1+  0.4+    150212 H36  0.0   0.0
    150211 703  0.2+  0.5-    150211 246  0.1+  0.3+    150212 926  0.3-  0.2-
    150211 703  0.3+  0.0     150211 246  0.1+  0.5+    150212 926  0.4-  0.6-
    150211 703  1.7-  0.6+    150211 246  0.0   0.7+    150212 926  0.1-  0.0
    150211 H01  0.2+  0.4+    150211 C77  0.2-  0.2+    150212 L04  0.3+  0.4+
    150211 H01  0.1+  0.3+    150211 C77  0.8-  0.9-    150212 L04  0.2+  0.3+
    150211 H01  0.1+  0.4+    150211 C77  0.1-  0.3+    150212 L04  0.1+  0.1+
    150211 H01  0.4+  0.2+    150211 204  0.0   0.2-    150212 L04  0.1+  0.1+
    150211 703  0.3+  0.1-    150211 204  0.1-  0.1-    150212 033  0.1-  0.6+
    150211 703  0.3+  0.2+    150211 204  0.1-  0.2-    150212 033  0.1-  0.6+
    150211 703  0.2-  0.2-    150211 204  0.1-  0.0     150212 033  0.3-  0.5+
    150211 703  0.5+  0.2-    150211 204  0.2-  0.0     150213 821  0.1+  0.4+
    150211 703  0.2+  0.9-    150211 595  0.0   0.1-    150213 821  0.2+  0.5+
    150211 Q62  0.2+  0.1+    150211 595  0.2+  0.4-    150213 821  0.4+  0.9+
    150211 Q62  0.1+  0.0     150211 595  0.1-  0.3-    150213 807  0.3+  0.4+
    150211 E23  0.4+  0.3-    150212 821  0.2-  0.6-    150213 807  0.2+  0.3+
    150211 E23  0.3+  0.2-    150212 821  0.0   0.2-    150213 807  0.2+  0.7+
    150211 E23  0.3+  0.4-    150212 821  0.1+  0.4-    150213 807  0.3+  0.6+
    150211 246  0.8-  0.1-    150212 807  0.1-  0.4-    150213 807  0.2+  0.4+
    150211 246  0.4-  0.1-    150212 807  0.1-  0.3-    150213 673  0.4-  1.2-
    150211 246  0.0   0.6+    150212 807  0.1-  0.3-    150213 673  0.3-  1.5-
    150211 246  0.4-  0.8+    150212 H36  0.0   0.0     150213 673  0.1-  2.2-
    150211 246  0.1-  0.1+    150212 H36  0.1+  0.1-
    
    Ephemeris:
    2015 CX12                a,e,i = 2.00, 0.61, 6                   q = 0.7792
    Date    TT    R. A. (2000) Decl.     Delta      r     Elong.  Phase     V
    2015 01 14    22 28 06.9 -50 57 38   0.1433  0.8860    43.9   129.6    21.2
    ...
    2015 01 29    07 24 52.1 -61 50 42   0.09395 1.0031    98.5    76.2    17.5
    ...
    2015 02 06    08 41 58.0 -31 30 32   0.1249  1.0735   131.9    43.1    17.3
    ...
    2015 02 12    08 58 35.1 -17 54 29   0.1648  1.1282   146.5    28.8    17.6
    2015 02 13    09 00 25.6 -16 12 58   0.1723  1.1374   148.3    27.2    17.7
    2015 02 14    09 02 06.6 -14 38 59   0.1801  1.1467   149.8    25.6    17.7
    ...
    2015 02 20    09 09 57.1 -07 18 39   0.2302  1.2026   156.0    19.5    18.2
    ...
    2015 02 28    09 17 30.5 -01 06 35   0.3059  1.2776   157.0    17.6    18.9
    ...
    2015 03 15    09 29 55.8 +05 02 12   0.4722  1.4172   148.1    21.8    20.2
    
    A. U. Tomatic                (C) Copyright 2015 MPC           M.P.E.C. 2015-C68
    

    Read MPEC 2015-C67 Read MPEC 2015-C69


    MPEC number:

    Enter an MPEC number in one of the following forms:

    • 1997-B01 (the full form)
    • J97B01 (the packed version of the full form)
    • B01 (the abbreviated form)